Location: Asni�res
(49.1337°N, 2.3555°E)
Time: 02:47:11
(UTC+00:00)

Cosmos 1626 Rocket - Pass Details

Date: 01 June 2022
Orbit: 602 x 631 km, 82.5° (Epoch: 04 July)

Event Time Altitude Azimuth Distance (km) Brightness Sun altitude
Exits shadow 02:14:05 - 158° (SSE) 2,885 6.7 -11.8°
Rises 02:14:06 0° 158° (SSE) 2,881 6.7 -11.8°
Reaches altitude 10° 02:16:34 10° 146° (SE) 1,975 5.9 -11.6°
Maximum altitude 02:20:14 27° 89° (E) 1,198 5.5 -11.2°
Drops below altitude 10° 02:23:53 10° 32° (NNE) 1,975 7.7 -10.9°
Sets 02:26:21 0° 20° (NNE) 2,880 8.6 -10.6°
